Ephrata, WA
on Saturday, November 10, 2012

Saturday
Previous Day Next Day
Daily Summary
 ActualAverageRecord
Temperature
Mean Temperature °F / °C 39°F / 4°C  
Max Temperature 38°F / 3°C 48°F / 9°C 67°F / 19°C (1990)
Min Temperature 22°F / -6°C 31°F / -1°C 17°F / -8°C (1986)
Degree Days
Heating Degree Days 35 26  
Month to date heating degree days 198 238  
Since 1 July heating degree days 693 819  
Cooling Degree Days 0 0  
Month to date cooling degree days 0 0  
Year to date cooling degree days 837 772  
Moisture
Dew Point 26°F / -3°C   
Average Humidity 75    
Maximum Humidity 85    
Minimum Humidity 64    
Precipitation
Precipitation T in / T cm 0.03 in / 0.76 cm 0.79 in / 2.01 cm (1983)
Month to date precipitation 0.07 0.31  
Year to date precipitation 5.93 5.86  
Wind
Wind Speed 4 mph / 6 km/h   
Max Wind Speed 10 mph / 16 km/h   
Max Gust Speed 12 mph / 19 km/h   
Visibility 10 miles / 16 kilometers   
Events     

Key: T is trace of precipitation, MM is missing value
Source: NWS Daily Summary
Time(PST)TemperatureDew PointHumidity Pressure Visibility Wind DirectionWind SpeedGust SpeedPrecipitationEvents Conditions
12:05 AM 33.8°F / 1.0°C 28.4°F / -2.0°C 81% 29.91 in / 1012.8 hPa 10.0 miles / 16.1 kilometers NE 4.6 mph / 7.4 km/h - N/A   Overcast
12:36 AM 33.8°F / 1.0°C 28.4°F / -2.0°C 81% 29.91 in / 1012.8 hPa 10.0 miles / 16.1 kilometers Calm Calm - N/A   Overcast
12:53 AM 34.0°F / 1.1°C 28.9°F / -1.7°C 82% 29.95 in / 1014.0 hPa 10.0 miles / 16.1 kilometers NE 3.5 mph / 5.6 km/h - N/A   Overcast
1:29 AM 33.8°F / 1.0°C 28.4°F / -2.0°C 81% 29.93 in / 1013.4 hPa 10.0 miles / 16.1 kilometers Calm Calm - N/A   Overcast
1:53 AM 34.0°F / 1.1°C 28.9°F / -1.7°C 82% 29.96 in / 1014.6 hPa 10.0 miles / 16.1 kilometers Calm Calm - N/A   Overcast
2:14 AM 33.8°F / 1.0°C 28.4°F / -2.0°C 81% 29.94 in / 1013.8 hPa 10.0 miles / 16.1 kilometers NW 3.5 mph / 5.6 km/h - N/A   Overcast
2:53 AM 34.0°F / 1.1°C 26.1°F / -3.3°C 73% 29.97 in / 1014.8 hPa 10.0 miles / 16.1 kilometers NNW 4.6 mph / 7.4 km/h - N/A   Overcast
3:53 AM 33.1°F / 0.6°C 24.1°F / -4.4°C 70% 29.98 in / 1015.2 hPa 10.0 miles / 16.1 kilometers North 4.6 mph / 7.4 km/h - N/A   Overcast
4:53 AM 32.0°F / 0.0°C 26.1°F / -3.3°C 79% 29.99 in / 1015.6 hPa 10.0 miles / 16.1 kilometers NNE 5.8 mph / 9.3 km/h - N/A   Overcast
5:53 AM 33.1°F / 0.6°C 26.1°F / -3.3°C 75% 30.01 in / 1016.3 hPa 10.0 miles / 16.1 kilometers NNW 6.9 mph / 11.1 km/h - N/A   Overcast
6:05 AM 33.8°F / 1.0°C 24.8°F / -4.0°C 70% 29.98 in / 1015.1 hPa 10.0 miles / 16.1 kilometers NNW 8.1 mph / 13.0 km/h - N/A   Overcast
6:53 AM 32.0°F / 0.0°C 26.1°F / -3.3°C 79% 30.03 in / 1016.7 hPa 10.0 miles / 16.1 kilometers North 9.2 mph / 14.8 km/h - N/A   Overcast
7:19 AM 32.0°F / 0.0°C 26.6°F / -3.0°C 80% 30.00 in / 1015.8 hPa 10.0 miles / 16.1 kilometers North 9.2 mph / 14.8 km/h - N/A   Overcast
7:53 AM 32.0°F / 0.0°C 27.0°F / -2.8°C 82% 30.05 in / 1017.5 hPa 10.0 miles / 16.1 kilometers North 4.6 mph / 7.4 km/h - N/A   Overcast
8:53 AM 33.1°F / 0.6°C 26.1°F / -3.3°C 75% 30.06 in / 1018.0 hPa 10.0 miles / 16.1 kilometers North 6.9 mph / 11.1 km/h - N/A   Overcast
9:09 AM 33.8°F / 1.0°C 26.6°F / -3.0°C 75% 30.03 in / 1016.8 hPa 10.0 miles / 16.1 kilometers North 5.8 mph / 9.3 km/h - N/A   Overcast
9:17 AM 33.8°F / 1.0°C 26.6°F / -3.0°C 75% 30.04 in / 1017.2 hPa 10.0 miles / 16.1 kilometers North 6.9 mph / 11.1 km/h - N/A   Overcast
9:53 AM 34.0°F / 1.1°C 26.1°F / -3.3°C 73% 30.08 in / 1018.6 hPa 10.0 miles / 16.1 kilometers North 5.8 mph / 9.3 km/h - N/A   Overcast
10:53 AM 35.1°F / 1.7°C 26.1°F / -3.3°C 70% 30.09 in / 1018.8 hPa 10.0 miles / 16.1 kilometers NNE 5.8 mph / 9.3 km/h - 0.00 in / 0.0 cm   Overcast
11:53 AM 36.0°F / 2.2°C 26.1°F / -3.3°C 67% 30.09 in / 1018.9 hPa 10.0 miles / 16.1 kilometers NE 5.8 mph / 9.3 km/h - N/A   Overcast
12:53 PM 36.0°F / 2.2°C 26.1°F / -3.3°C 67% 30.11 in / 1019.4 hPa 10.0 miles / 16.1 kilometers Calm Calm - N/A   Mostly Cloudy
1:04 PM 35.6°F / 2.0°C 26.6°F / -3.0°C 70% 30.07 in / 1018.2 hPa 10.0 miles / 16.1 kilometers Calm Calm - N/A   Mostly Cloudy
1:53 PM 36.0°F / 2.2°C 26.1°F / -3.3°C 67% 30.11 in / 1019.6 hPa 10.0 miles / 16.1 kilometers East 3.5 mph / 5.6 km/h - N/A   Mostly Cloudy
2:53 PM 37.9°F / 3.3°C 26.1°F / -3.3°C 62% 30.13 in / 1020.2 hPa 10.0 miles / 16.1 kilometers Calm Calm - N/A   Clear
3:53 PM 36.0°F / 2.2°C 26.1°F / -3.3°C 67% 30.15 in / 1020.8 hPa 10.0 miles / 16.1 kilometers Calm Calm - N/A   Overcast
4:53 PM 28.9°F / -1.7°C 24.1°F / -4.4°C 82% 30.16 in / 1021.3 hPa 10.0 miles / 16.1 kilometers SSW 6.9 mph / 11.1 km/h - N/A   Clear
5:53 PM 28.0°F / -2.2°C 24.1°F / -4.4°C 85% 30.18 in / 1021.8 hPa 10.0 miles / 16.1 kilometers SW 3.5 mph / 5.6 km/h - N/A   Clear
6:53 PM 27.0°F / -2.8°C 23.0°F / -5.0°C 85% 30.19 in / 1022.3 hPa 10.0 miles / 16.1 kilometers Calm Calm - N/A   Clear
9:53 PM 28.9°F / -1.7°C 21.9°F / -5.6°C 75% 30.21 in / 1023.0 hPa 10.0 miles / 16.1 kilometers NW 5.8 mph / 9.3 km/h - N/A   Clear
10:53 PM 26.1°F / -3.3°C 21.0°F / -6.1°C 81% 30.22 in / 1023.3 hPa 10.0 miles / 16.1 kilometers Calm Calm - N/A   Clear
11:53 PM 24.1°F / -4.4°C 19.0°F / -7.2°C 81% 30.24 in / 1024.0 hPa 10.0 miles / 16.1 kilometers NNE 3.5 mph / 5.6 km/h - N/A   Clear
Moon Phase
Nov. 10 Nov. 13 Nov. 20 Nov. 28 Dec. 06
Sunrise:06:55 AM (PST) Moon Rise:02:53 AM (PST)11/10
Sunset:04:27 PM (PST) Moon Set:02:28 PM (PST)11/10

Copyright © 2014 The Weather Underground, Inc.